Home > Weather > Rosenheim > Past weeks

Flag for Germany Weather for the Past 2 Weeks in Rosenheim, Bavaria, Germany

Now
34 °F

Chilly.


Feels Like: 34 °F
Forecast: 25 / 43 °F
Wind: 1 mph from Southwest

Location: Kufstein

Current Time: Feb 10, 2016 at 11:53:16 PM

Latest Report: Feb 10, 2016 at 11:00 PM


Visibility: N/A

Pressure: 29.73 "Hg

Humidity: 93%

Dew point: 32 °F

Location of RosenheimLocation

Historic Weather in Rosenheim — Graph

°F

Rosenheim Temperature Yesterday

Maximum temperature yesterday: 58 °F (at 5:00 PM)
Minimum temperature yesterday: 34 °F (at 8:00 AM)
Average temperature yesterday: 50 °F

High & Low Weather Summary for the Past Weeks

 TemperatureHumidityPressure
High58 °F (Feb 9, 5:00 PM)100% (Jan 30, 2:00 AM)30.53 "Hg (Jan 30, 2:00 AM)
Low29 °F (Jan 27, 8:00 AM)31% (Feb 9, 5:00 PM)29.23 "Hg (Feb 9, 9:00 PM)
Average38 °F87%30.14 "Hg
* Reported Jan 26 9:00 PM — Feb 10 9:00 PM, Rosenheim, Weather by CustomWeather, © 2016

Note: Actual official high and low records may vary slightly from our data, if they occured in-between our weather recording intervals... More about our weather records

Advertising

Rosenheim Weather History for the Previous 24 Hours

 ConditionsComfort  
Time TempWeatherWind HumidityBarometerVisibility
9:00 PM
Wed, Feb 10
33 °FFog.1 mph95%29.71 "HgN/A
8:00 PM34 °FSprinkles. Overcast.No wind95%29.70 "HgN/A
7:00 PM35 °FChilly.1 mph93%29.66 "HgN/A
6:00 PM35 °FChilly.1 mph90%29.63 "HgN/A
5:00 PM36 °FChilly.1 mph88%29.60 "HgN/A
4:00 PM36 °FChilly.1 mph88%29.58 "HgN/A
3:00 PM36 °FChilly.1 mph86%29.57 "HgN/A
2:00 PM35 °FChilly.No wind92%29.59 "HgN/A
1:00 PM34 °FChilly.1 mph94%29.58 "HgN/A
12:00 PM34 °FFog.1 mph96%29.57 "HgN/A
11:00 AM33 °FFog.1 mph96%29.56 "HgN/A
10:00 AM33 °FChilly.1 mph96%29.54 "HgN/A
9:00 AM33 °FFog.No wind96%29.53 "HgN/A
8:00 AM33 °FChilly.1 mph95%29.50 "HgN/A
7:00 AM34 °FSnow flurries. Low clouds.No wind96%29.47 "Hg2 mi
5:00 AM35 °FChilly.No wind92%29.47 "HgN/A
Weather by CustomWeather, © 2016

See weather overviewHow to use our weather pages